Garden City, KS

3:51 PM CDT on October 17, 2019 (GMT -0500)
Garden City Regional

Weather History for KGCK - September, 2019

Change the Weather History Date:

Monday, September 16, 2019

  Actual Average Record
Temperature  
Mean Temperature 78 °F 68 °F  
Max Temperature 93 °F 82 °F 102 °F (2007)
Min Temperature 63 °F 54 °F 38 °F (1951)
Degree Days  
Heating Degree Days 0 2  
Month to date heating degree days 0 16  
Since 1 July heating degree days 0 20  
Cooling Degree Days 13 5  
Month to date cooling degree days 205 114  
Year to date cooling degree days 1283 1230  
Growing Degree Days 28 (Base 50)    
Moisture  
Dew Point 55 °F    
Average Humidity 49    
Maximum Humidity 84    
Minimum Humidity 24    
Precipitation  
Precipitation 0.00 in 0.05 in 0.72 in (1950)
Month to date precipitation 0.24 0.84  
Year to date precipitation 12.24 16.49  
Sea Level Pressure  
Sea Level Pressure 29.92 in    
Wind  
Wind Speed 14 mph ()    
Max Wind Speed 32 mph    
Max Gust Speed 42 mph    
Visibility 10.0 miles    
Events      
T = Trace of Precipitation, MM = Missing Value Source: Averaged Metar Reports

Daily Weather History Graph

Daily Weather History Graph

Search for Another Location

Airport or City:

Astronomy

Sep. 16, 2019 Rise Set
Actual Time 7:25 AM CDT 7:49 PM CDT
Civil Twilight 6:59 AM CDT 8:15 PM CDT
Nautical Twilight 6:28 AM CDT 8:46 PM CDT
Astronomical Twilight 5:56 AM CDT 9:18 PM CDT
Moon 9:27 PM CDT (9/16) 9:32 AM CDT (9/16)
Length of Visible Light 13h 16m
Length of Day
12h 24m
Waning Gibbous, 94% of the Moon is Illuminated
Sep 16
Waning Gibbous
Sep 21
Last Quarter
Sep 28
New
Oct 5
First Quarter
Oct 13
Full

Hourly Weather History & Observations

Time (CDT) Temp. Heat Index Dew Point Humidity Pressure Visibility Wind Dir Wind Speed Gust Speed Precip Events Conditions
12:54 AM 73.0 °F - 55.0 °F 53% 29.95 in 10.0 mi South 11.5 mph - N/A   Clear
1:54 AM 71.1 °F - 55.0 °F 57% 29.95 in 10.0 mi South 12.7 mph - N/A   Clear
2:54 AM 71.1 °F - 55.0 °F 57% 29.96 in 10.0 mi South 11.5 mph - N/A   Clear
3:54 AM 72.0 °F - 55.0 °F 55% 29.95 in 10.0 mi South 17.3 mph - N/A   Scattered Clouds
4:54 AM 70.0 °F - 55.0 °F 59% 29.95 in 10.0 mi South 13.8 mph - N/A   Mostly Cloudy
5:54 AM 68.0 °F - 55.9 °F 65% 29.96 in 10.0 mi South 11.5 mph - N/A   Clear
6:54 AM 64.9 °F - 55.9 °F 73% 29.97 in 10.0 mi South 8.1 mph - N/A   Clear
7:54 AM 63.0 °F - 57.0 °F 81% 30.00 in 10.0 mi South 5.8 mph - N/A   Clear
8:54 AM 68.0 °F - 57.9 °F 70% 30.00 in 10.0 mi SSW 10.4 mph - N/A   Clear
9:54 AM 75.0 °F - 57.0 °F 53% 29.99 in 10.0 mi SSW 17.3 mph - N/A   Clear
10:54 AM 73.0 °F - 57.0 °F 57% 29.99 in 10.0 mi SSW 17.3 mph 28.8 mph N/A   Clear
11:54 AM 88.0 °F 86.1 °F 55.0 °F 32% 29.94 in 10.0 mi SSW 27.6 mph 36.8 mph N/A   Clear
1:54 PM 90.0 °F - 52.0 °F 27% 29.89 in 10.0 mi South 28.8 mph 39.1 mph N/A   Partly Cloudy
2:54 PM 91.0 °F - 52.0 °F 26% 29.87 in 10.0 mi South 23.0 mph 39.1 mph N/A   Clear
4:54 PM 91.9 °F - 50.0 °F 24% 29.83 in 10.0 mi South 24.2 mph 38.0 mph N/A   Clear
5:54 PM 88.0 °F - 48.9 °F 26% 29.84 in 10.0 mi South 21.9 mph 32.2 mph N/A   Clear
6:54 PM 87.1 °F - 51.1 °F 29% 29.84 in 10.0 mi South 23.0 mph 29.9 mph N/A   Clear
7:54 PM 82.0 °F 81.2 °F 53.1 °F 37% 29.85 in 10.0 mi South 13.8 mph 23.0 mph N/A   Partly Cloudy
8:54 PM 80.1 °F 80.1 °F 55.0 °F 42% 29.85 in 10.0 mi South 23.0 mph 32.2 mph N/A   Clear
9:54 PM 78.1 °F - 57.0 °F 48% 29.86 in 10.0 mi South 17.3 mph 31.1 mph N/A   Clear
10:54 PM 77.0 °F - 57.0 °F 50% 29.88 in 10.0 mi South 17.3 mph 25.3 mph N/A   Clear
11:54 PM 75.0 °F - 57.0 °F 53% 29.87 in 10.0 mi South 12.7 mph 23.0 mph N/A   Clear